User: anonymous   Login
Location: Prague
(50.0830°N, 14.4670°E)
Time: 07:38:47
(UTC+01:00)
Language:

COSMOS 2251 DEB - Orbit

View from above orbital plane
View from above orbital plane
View from above satellite
View from above satellite

Ground track
Ground track

The orbit data is extracted from the following two-line orbital elements,

1 37125U 93036BGX 23267.51052244  .00186652  00000-0  67996-2 0  9999
2 37125  73.9928 207.3662 0024700 203.5297 156.4777 15.27056114371106
Epoch (UTC): 24 September 2023 12:15:09
Eccentricity: 0.0024700
inclination: 73.9928°
perigee height: 467 km
apogee height: 501 km
right ascension of ascending node: 207.3662°
argument of perigee: 203.5297°
revolutions per day: 15.27056114
mean anomaly at epoch: 156.4777°
orbit number at epoch: 37110

The dashed part of the orbit path shows where the satellite is in the earth's shadow,  

DLR